Погода в Отрадном

Россия / Брянская область     53°19′39″N   34°10′23″E
темп.,
°C
ветер,
м/с
пор.,
м/с
влажн.,
%
обл.,
%
осадки,
мм/ч
давл.,
гПа
погр.,
м
15 мая, сб
сб1500:00+13ю349474 0.0 100870
03:00+12ююв33940 0.0 100742
06:00+12ю369795 0.4 1008147
09:00+17ююз47800 1.2 1008423
12:00+19ююз576414 1.1 10081479
15:00+19ююз677179 3.6 10081212
18:00+17ююз598116 2.2 1009804
21:00+13ююз399481 3.8 1010202
16 мая, вс
вс1600:00+12ю310965 0.0 1010238
03:00+10ю39965 0.0 1011184
06:00+10ю38955 0.0 1012209
09:00+15ююз46805 0.0 1013519
12:00+19юз446334 0.0 10131339
15:00+21ююз345572 0.1 10131805
18:00+21зюз2260100 0.0 1012906
21:00+15ю228083 0.1 101314
17 мая, пн
пн1700:00+13вюв228898 0.0 101313
03:00+12в349171 0.0 101262
06:00+13всв31189100 0.0 1011244
09:00+20в59708 0.0 1009504
12:00+24вюв79565 0.0 1007993
15:00+25вюв71353100 0.0 10061544
18:00+23юв7126154 0.0 10041198
21:00+18юв5118089 0.0 1004326
18 мая, вт
вт1800:00+16юв51491100 0.7 1004413
03:00+16юв51295100 0.9 1003350
06:00+16ююв51296100 0.0 1003581
09:00+17ююв61189100 0.1 1003898
12:00+16ююз5986100 0.4 1005728
15:00+19ююз5666100 1.0 10051293
18:00+18ю3578100 1.8 1005618
21:00+13ююв229391 3.9 100527
19 мая, ср
ср1900:00+14юз1296100 1.5 100446
03:00+13ю2496100 2.3 1004132
06:00+13зюз3698100 1.8 1004435
09:00+13з6991100 1.9 1005617
12:00+16зюз6772100 0.4 10071173
15:00+18з5858100 0.4 10081580
18:00+16з467293 0.6 1009954
21:00+12з2285100 0.9 101135